Terminal Aerodrome Forecast
Issued by NWS Jackson, MS

Home | Current Version | Previous Version | Text Only | Print | Product List | Glossary On
Versions: 1 2 3 4 5 6 7 8 9 10 11 12 13 14
000
FTUS44 KJAN 300535
TAFMEI
TAF
KMEI 300535Z 3006/3106 00000KT P6SM SCT200
     FM301000 VRB03KT 6SM BR HZ FEW200
     FM301400 02007KT P6SM SCT030 BKN050
     FM301800 01009KT P6SM VCTS SCT040 BKN060CB
     FM302100 36007KT P6SM SCT250=

USA.gov is the U.S. government's official web portal to all federal, state and local government web resources and services.